Connecta T4.3

operational
NORAD ID: 60475 Int'l Des: 2024-149 Owner: PLNSST Country: TR
LEOCIRCULARRETROGRADESSO

Über Connecta T4.3

Beschreibung wird geladen...

Live-Position

3D-Globus wird geladen...

Nächste Überflüge

Höhenverlauf

Altitude vs Time

uPlot chart will show altitude changes over time

Zweizeiliger Elementsatz

1 60475U 24149H 26062.15151824 .00006106 00000-0 26361-3 0 9999
2 60475 97.3810 140.0504 0001441 279.1939 80.9135 15.22870911 85663
Epoch: 3. März 2026 • Age: 13 hours

Aktueller Status

Höhe 520.4 km
Geschwindigkeit 7.60 km/s
Subsatellitenpunkt -62.45°S, 43.98°W
Startdatum 16. Aug. 2024
Alter 1.5 years
Typ other

Technische Details

Klassifizierung Payload
Masse 10.00 kg
Trockenmasse 10.00 kg
Gesamtmasse 10.00 kg
Länge 0.30 m
Durchmesser 0.20 m
Spannweite 0.30 m
Form Box
Hersteller PLNSST
Bus-Typ Cubesat 6U
Phasenstatus In Orbit
Besitzer/Staat PLNSST/TR

Große Konstellationen

Loading constellations...